Showing default

GARAI-A, 62635

Orbit data source: Space-Track

GARAI-A, 62635 is a payload satellite in SSO that was launched on Tue, 14 Jan 2025 UTC via an FALCON 9 launch vehicle from the Air Force Western Test Range (AFWTR). Payload-class satellites include a variety of spacecraft equipped with specific instruments for various scientific and technological missions. These include communications satellites like Starlink; space stations such as the ISS; scientific satellites like the Hubble; Earth observation satellites from companies like Planet Labs, Umbra, and HawkEye 360; GPS; miniature CubeSats for education and research; and military/defense satellites.

Loading next visibility...
Identifier
62635, 2025-009AC
Orbit
SSO
Last TLE update
1 day ago
Origin
Manufacturer
OHB-SE
Mission
Operational Commercial Imaging
Bus & Motor
INNOSAT, Unknown motor
Mass
115 kg wet, 115 kg dry
Launch date (UTC)
2025-01-14 (4 months ago)
Launch vehicle
FALCON 9
Launch site
Air Force Western Test Range (AFWTR)
Object type
Payload
Rocket body
Debris
Shape & HBR
Box, 5.3 m
Radar Cross Section
1.305 m², Medium (>0.1 m² and < 1m²)

Expand to show TLE details & history

TLE from 1 day ago
0 GARAI-A
1 62635U 25009AC  25139.57745655  .00008522  00000-0  38623-3 0  9994
2 62635  97.4296 220.3699 0001744 222.2622 137.8480 15.21092790 18945
Epoch: 2025-05-19T13:51Z
TLE epoch observation values (Epoch: 2025-05-19T13:51:32.245Z)
Latitude
Longitude
134.99747°
Altitude
506.524 km
Speed
7.61 km/s
True Right ascension
14h 41m 28s
True Declination
0° 00' 00"
Sunlit
Object was in full shadow at epoch
Visualization orbit readout
Latitude
65.03068°
Longitude
119.94174°
Altitude
514.796 km
Speed
7.612 km/s
Apparent Right ascension
13h 48m 44s
Apparent Declination
15° 25' 09"
Sunlit
Object is in daylight
Visualization observer readout
Local Sidereal Time
01:53:12
Azimuth
1.306° NNE
Elevation
-34.655°
Doppler factor
1
Orbital elements
Apogee altitude
500.708 km
Perigee altitude
498.309 km
Semi-major axis
6,877.646 km
Eccentricity
0.00017
Inclination
97.4296°
RAAN
220.3699°
Arg. of periapsis
222.2622°
True anomaly
Unknown
Mean anomaly
137.848°
Eccentric anomaly
Unknown
Mean motion
3.80525 °/min
Orbital period
94.61 mins
BSTAR
0.00038623
Loading maneuver chart data...
Loading SW <> Apogee altitude chart data...
Loading historical data...
Loading historical data...
Loading historical data...
Loading historical data...
Loading historical data...
Loading historical data...
Loading historical data...

GARAI-A Visibility forecast

Observer location: undefined°, undefined°

Span
Click to sort rows by Start time (UTC) header in descending order
Start Az.
Max El. time (UTC)
Max El. Az.
Max El.
End time (UTC)
End Az.
4 mins2025-05-20 17:17:15.922Z61.095° ENE2025-05-20 17:19:15.922Z97.437° ESE15.23°2025-05-20 17:21:15.922Z131.275° SE
4 mins2025-05-20 18:51:15.922Z331.424° NNW2025-05-20 18:53:15.922Z276.593° WNW25.783°2025-05-20 18:55:15.922Z234.815° WSW
5 mins2025-05-21 05:28:15.922Z172.227° S2025-05-21 05:30:15.922Z247.666° W44.679°2025-05-21 05:33:15.922Z345.424° N
|